Weather History for KSKA - October, 2012

Change the Weather History Date:

Saturday, October 27, 2012

  Actual Average Record
Temperature  
Mean Temperature 38 °F -  
Max Temperature 41 °F 47 °F 64 °F (1998)
Min Temperature 35 °F 30 °F 24 °F (2002)
Degree Days  
Heating Degree Days 27    
Moisture  
Dew Point 40 °F    
Average Humidity 100    
Maximum Humidity 100    
Minimum Humidity 100    
Precipitation  
Precipitation 0.06 in - - ()
Sea Level Pressure  
Sea Level Pressure 30.03 in    
Wind  
Wind Speed 6 mph (South)    
Max Wind Speed 13 mph    
Max Gust Speed -    
Visibility 9 miles    
Events Rain    
Averages and records for this station are not official NWS values.
T = Trace of Precipitation, MM = Missing Value Source: NWS Daily Summary

Daily Weather History Graph

Daily Weather History Graph

Search for Another Location

Airport or City:

Trip Planner

Search our weather history database for the weather conditions in past years. The results will help you decide how hot, cold, wet, or windy it might be!

Date:

Astronomy

Oct. 27, 2012 Rise Set
Actual Time 7:28 AM PDT 5:40 PM PDT
Civil Twilight 6:56 AM PDT 6:11 PM PDT
Nautical Twilight 6:19 AM PDT 6:48 PM PDT
Astronomical Twilight 5:44 AM PDT 7:23 PM PDT
Moon 4:32 PM PDT (10/27) 5:21 AM PDT (10/27)
Length of Visible Light 11h 15m
Length of Day
10h 12m
Waxing Gibbous, 96% of the Moon is Illuminated
Oct 27
Waxing Gibbous
Oct 29
Full
Nov 6
Last Quarter
Nov 13
New
Nov 20
First Quarter

Hourly Weather History & Observations

Time (PDT) Temp. Windchill Dew Point Humidity Pressure Visibility Wind Dir Wind Speed Gust Speed Precip Events Conditions
12:04 AM 35.6 °F 32.8 °F 35.6 °F 100% 30.12 in 10.0 mi South 3.5 mph - N/A Rain Light Rain
12:54 AM 35.6 °F 31.7 °F 35.6 °F 100% 30.10 in 10.0 mi South 4.6 mph - N/A Rain Light Rain
1:17 AM 35.6 °F 30.7 °F 35.6 °F 100% 30.10 in 10.0 mi South 5.8 mph - N/A   Overcast
1:55 AM 36.0 °F 33.3 °F 36.0 °F 100% 30.10 in 10.0 mi SSE 3.5 mph - 0.00 in   Overcast
2:10 AM 35.6 °F 29.9 °F 35.6 °F 100% 30.10 in 10.0 mi SSE 6.9 mph - N/A   Overcast
2:21 AM 35.6 °F 29.9 °F 35.6 °F 100% 30.10 in 7.0 mi SSE 6.9 mph - N/A   Overcast
2:45 AM 35.6 °F 30.7 °F 35.6 °F 100% 30.11 in 3.0 mi South 5.8 mph - N/A   Overcast
2:55 AM 36.1 °F 30.6 °F 36.1 °F 100% 30.10 in 4.0 mi South 6.9 mph - 0.00 in Rain Light Rain
3:09 AM 35.6 °F 29.9 °F 35.6 °F 100% 30.10 in 6.0 mi South 6.9 mph - N/A   Overcast
3:38 AM 35.6 °F 31.7 °F 35.6 °F 100% 30.09 in 10.0 mi South 4.6 mph - N/A   Overcast
3:55 AM 36.3 °F 32.5 °F 36.3 °F 100% 30.08 in 10.0 mi South 4.6 mph - 0.00 in   Overcast
4:55 AM 36.9 °F - 36.9 °F 100% 30.09 in 10.0 mi Calm Calm - N/A   Overcast
5:55 AM 37.0 °F 34.5 °F 37.0 °F 100% 30.09 in 10.0 mi SSE 3.5 mph - N/A   Overcast
6:06 AM 37.4 °F 34.9 °F 37.4 °F 100% 30.09 in 10.0 mi SSE 3.5 mph - N/A   Overcast
6:09 AM 37.4 °F 34.9 °F 37.4 °F 100% 30.09 in 10.0 mi South 3.5 mph - N/A   Overcast
6:55 AM 37.2 °F 33.6 °F 37.2 °F 100% 30.09 in 5.0 mi South 4.6 mph - N/A   Overcast
7:55 AM 37.4 °F 33.8 °F 37.4 °F 100% 30.09 in 4.0 mi South 4.6 mph - N/A   Overcast
7:59 AM 37.4 °F 32.8 °F 37.4 °F 100% 30.09 in 4.0 mi South 5.8 mph - N/A   Overcast
8:55 AM 37.9 °F 34.4 °F 37.9 °F 100% 30.09 in 5.0 mi South 4.6 mph - N/A   Overcast
9:55 AM 38.3 °F 32.5 °F 38.3 °F 100% 30.07 in 4.0 mi South 8.1 mph - N/A   Overcast
10:43 AM 39.2 °F 33.6 °F 39.2 °F 100% 30.08 in 8.0 mi South 8.1 mph - N/A   Overcast
10:55 AM 39.2 °F 33.6 °F 39.2 °F 100% 30.08 in 8.0 mi SSW 8.1 mph - N/A   Overcast
11:34 AM 39.2 °F 33.0 °F 39.2 °F 100% 30.08 in 10.0 mi SSW 9.2 mph - N/A   Overcast
11:55 AM 40.3 °F 34.4 °F 40.3 °F 100% 30.08 in 10.0 mi SSW 9.2 mph - N/A   Overcast
11:58 AM 41.0 °F 35.2 °F 41.0 °F 100% 30.08 in 10.0 mi SSW 9.2 mph - N/A   Overcast
12:07 PM 41.0 °F 37.1 °F 41.0 °F 100% 30.07 in 10.0 mi SSW 5.8 mph - N/A   Overcast
12:23 PM 41.0 °F 36.4 °F 41.0 °F 100% 30.07 in 10.0 mi SSW 6.9 mph - N/A   Overcast
12:29 PM 41.0 °F 36.4 °F 41.0 °F 100% 30.07 in 10.0 mi SSW 6.9 mph - N/A   Overcast
12:40 PM 41.0 °F 35.2 °F 41.0 °F 100% 30.07 in 10.0 mi South 9.2 mph - N/A   Overcast
12:44 PM 41.0 °F 34.7 °F 41.0 °F 100% 30.06 in 10.0 mi South 10.4 mph - N/A   Overcast
12:46 PM 41.0 °F 34.7 °F 41.0 °F 100% 30.06 in 10.0 mi South 10.4 mph - N/A   Overcast
12:55 PM 40.3 °F 33.0 °F 40.3 °F 100% 30.06 in 10.0 mi SSW 12.7 mph - 0.00 in Rain Light Rain
1:55 PM 40.8 °F 35.0 °F 40.8 °F 100% 30.06 in 8.0 mi SW 9.2 mph - 0.01 in Rain Light Rain
1:58 PM 41.0 °F 35.2 °F 41.0 °F 100% 30.05 in 8.0 mi SW 9.2 mph - N/A Rain Light Rain
2:00 PM 41.0 °F 35.8 °F 41.0 °F 100% 30.05 in 9.0 mi SW 8.1 mph - N/A Rain Light Rain
2:13 PM 41.0 °F 34.7 °F 41.0 °F 100% 30.06 in 8.0 mi SW 10.4 mph - N/A Rain Light Rain
2:19 PM 41.0 °F 35.8 °F 41.0 °F 100% 30.06 in 7.0 mi SW 8.1 mph - N/A Rain Light Rain
2:27 PM 41.0 °F 35.2 °F 41.0 °F 100% 30.05 in 8.0 mi SW 9.2 mph - N/A Rain Light Rain
2:33 PM 41.0 °F 35.8 °F 41.0 °F 100% 30.04 in 10.0 mi SW 8.1 mph - N/A Rain Light Rain
2:40 PM 41.0 °F 35.8 °F 41.0 °F 100% 30.04 in 9.0 mi SW 8.1 mph - N/A Rain Light Rain
2:45 PM 41.0 °F 36.4 °F 41.0 °F 100% 30.04 in 9.0 mi SSW 6.9 mph - N/A Rain Light Rain
2:47 PM 41.0 °F 35.8 °F 41.0 °F 100% 30.04 in 9.0 mi SW 8.1 mph - N/A Rain Light Rain
2:52 PM 41.0 °F 37.1 °F 41.0 °F 100% 30.04 in 10.0 mi SSW 5.8 mph - N/A Rain Light Rain
2:54 PM 41.0 °F 36.4 °F 41.0 °F 100% 30.04 in 10.0 mi SW 6.9 mph - N/A Rain Light Rain
2:57 PM 41.0 °F 37.1 °F 41.0 °F 100% 30.03 in 10.0 mi SW 5.8 mph - N/A Rain Light Rain
3:01 PM 41.0 °F 38.0 °F 41.0 °F 100% 30.03 in 10.0 mi SSW 4.6 mph - N/A Rain Light Rain
3:07 PM 41.0 °F 38.0 °F 41.0 °F 100% 30.04 in 10.0 mi South 4.6 mph - N/A Rain Light Rain
3:10 PM 41.0 °F 38.0 °F 41.0 °F 100% 30.03 in 10.0 mi South 4.6 mph - N/A Rain Light Rain
3:24 PM 41.0 °F 37.1 °F 41.0 °F 100% 30.03 in 10.0 mi South 5.8 mph - N/A Rain Light Rain
3:26 PM 41.0 °F 36.4 °F 41.0 °F 100% 30.03 in 10.0 mi South 6.9 mph - N/A Rain Light Rain
3:30 PM 41.0 °F 37.1 °F 41.0 °F 100% 30.03 in 10.0 mi South 5.8 mph - N/A Rain Light Rain
3:40 PM 41.0 °F 36.4 °F 41.0 °F 100% 30.03 in 10.0 mi South 6.9 mph - N/A Rain Light Rain
3:42 PM 41.0 °F 35.8 °F 41.0 °F 100% 30.03 in 10.0 mi South 8.1 mph - N/A Rain Light Rain
3:53 PM 41.0 °F 35.8 °F 41.0 °F 100% 30.03 in 10.0 mi South 8.1 mph - N/A Rain Light Rain
3:55 PM 41.7 °F 37.3 °F 41.7 °F 100% 30.02 in 10.0 mi South 6.9 mph - 0.01 in Rain Light Rain
4:01 PM 41.0 °F 36.4 °F 41.0 °F 100% 30.02 in 10.0 mi South 6.9 mph - N/A   Overcast
4:30 PM 41.0 °F 39.0 °F 41.0 °F 100% 30.02 in 10.0 mi SSE 3.5 mph - N/A   Overcast
4:38 PM 41.0 °F 38.0 °F 41.0 °F 100% 30.01 in 10.0 mi SSE 4.6 mph - N/A   Light Drizzle
4:52 PM 41.0 °F 37.1 °F 41.0 °F 100% 30.01 in 7.0 mi SE 5.8 mph - N/A Rain Light Rain
4:55 PM 41.0 °F 37.1 °F 41.0 °F 100% 30.01 in 7.0 mi SSE 5.8 mph - 0.00 in   Light Drizzle
4:57 PM 41.0 °F 37.1 °F 41.0 °F 100% 30.01 in 6.0 mi SSE 5.8 mph - N/A   Light Drizzle
5:02 PM 41.0 °F 38.0 °F 41.0 °F 100% 30.01 in 6.0 mi SSE 4.6 mph - N/A Rain Light Rain
5:22 PM 41.0 °F 35.8 °F 41.0 °F 100% 29.99 in 7.0 mi South 8.1 mph - N/A   Overcast
5:34 PM 41.0 °F 35.2 °F 41.0 °F 100% 30.00 in 10.0 mi South 9.2 mph - N/A   Overcast
5:37 PM 41.0 °F 35.8 °F 41.0 °F 100% 29.99 in 10.0 mi South 8.1 mph - N/A   Overcast
5:55 PM 40.1 °F 34.7 °F 40.1 °F 100% 29.99 in 10.0 mi South 8.1 mph - 0.00 in   Overcast
6:14 PM 41.0 °F 36.4 °F 41.0 °F 100% 30.00 in 10.0 mi South 6.9 mph - N/A   Overcast
6:17 PM 41.0 °F 36.4 °F 41.0 °F 100% 29.99 in 10.0 mi South 6.9 mph - N/A   Overcast
6:19 PM 41.0 °F 37.1 °F 41.0 °F 100% 29.99 in 10.0 mi South 5.8 mph - N/A   Overcast
6:27 PM 41.0 °F 36.4 °F 41.0 °F 100% 30.00 in 10.0 mi South 6.9 mph - N/A   Overcast
6:34 PM 39.2 °F 33.0 °F 39.2 °F 100% 30.00 in 10.0 mi South 9.2 mph - N/A   Overcast
6:38 PM 41.0 °F 35.8 °F 41.0 °F 100% 30.00 in 10.0 mi South 8.1 mph - N/A   Overcast
6:50 PM 39.2 °F 34.2 °F 39.2 °F 100% 30.00 in 10.0 mi SSE 6.9 mph - N/A   Overcast
6:55 PM 40.1 °F 35.3 °F 40.1 °F 100% 29.99 in 10.0 mi South 6.9 mph - 0.00 in   Overcast
6:57 PM 39.2 °F 33.6 °F 39.2 °F 100% 29.99 in 10.0 mi South 8.1 mph - N/A   Overcast
7:01 PM 39.2 °F 33.6 °F 39.2 °F 100% 29.99 in 10.0 mi South 8.1 mph - N/A   Light Drizzle
7:39 PM 39.2 °F 34.2 °F 39.2 °F 100% 29.97 in 10.0 mi South 6.9 mph - N/A   Overcast
7:55 PM 39.9 °F 35.1 °F 39.9 °F 100% 29.96 in 10.0 mi SE 6.9 mph - 0.00 in   Overcast
8:00 PM 39.2 °F 35.0 °F 39.2 °F 100% 29.96 in 10.0 mi SSE 5.8 mph - N/A Rain Light Rain
8:15 PM 41.0 °F 35.8 °F 41.0 °F 100% 29.94 in 10.0 mi SE 8.1 mph - N/A   Overcast
8:22 PM 41.0 °F 34.7 °F 41.0 °F 100% 29.94 in 10.0 mi SE 10.4 mph - N/A Rain Light Rain
8:36 PM 41.0 °F 34.7 °F 41.0 °F 100% 29.94 in 10.0 mi SSE 10.4 mph - N/A   Overcast
8:40 PM 41.0 °F 34.3 °F 41.0 °F 100% 29.94 in 10.0 mi SSE 11.5 mph - N/A Rain Light Rain
8:55 PM 40.3 °F 34.4 °F 40.3 °F 100% 29.93 in 10.0 mi SSE 9.2 mph - 0.00 in Rain Light Rain
9:29 PM 41.0 °F 35.2 °F 41.0 °F 100% 29.93 in 10.0 mi SSE 9.2 mph - N/A   Overcast
9:32 PM 41.0 °F 35.8 °F 41.0 °F 100% 29.93 in 10.0 mi SSE 8.1 mph - N/A   Light Drizzle
9:55 PM 40.3 °F 34.9 °F 40.3 °F 100% 29.93 in 10.0 mi SSE 8.1 mph - 0.02 in Rain Light Rain
9:58 PM 41.0 °F 36.4 °F 41.0 °F 100% 29.93 in 10.0 mi SSE 6.9 mph - N/A   Overcast
9:59 PM 41.0 °F 37.1 °F 41.0 °F 100% 29.93 in 10.0 mi SSE 5.8 mph - N/A   Light Drizzle
10:22 PM 41.0 °F 35.8 °F 41.0 °F 100% 29.93 in 6.0 mi SSE 8.1 mph - N/A Rain Light Rain
10:55 PM 40.5 °F 36.5 °F 40.5 °F 100% 29.91 in 7.0 mi SE 5.8 mph - 0.02 in Rain Light Rain
11:44 PM 41.0 °F 36.4 °F 41.0 °F 100% 29.88 in 5.0 mi SE 6.9 mph - N/A Rain Light Rain
11:54 PM 41.0 °F 36.4 °F 41.0 °F 100% 29.88 in 5.0 mi SE 6.9 mph - N/A Rain Light Rain